Location: Misciano
(43.5000°N, 11.9500°E)
Time: 05:42:12
(UTC+00:00)

SPOT 3 Rocket - Pass Details

Date: 13 August 2020
Orbit: 778 x 795 km, 98.8° (Epoch: 23 September)

Event Time Altitude Azimuth Distance (km) Brightness Sun altitude
Exits shadow 20:01:50 - 187° (S) 2,454 5.8 -17.0°
Reaches altitude 10° 20:02:07 10° 188° (S) 2,352 5.7 -17.1°
Maximum altitude 20:07:05 46° 261° (W) 1,058 4.5 -17.7°
Drops below altitude 10° 20:12:05 10° 334° (NNW) 2,359 7.1 -18.4°
Sets 20:14:31 0° 341° (NNW) 3,290 7.9 -18.7°
